Flag for U.S.A. Weather past 2 weeks in Babylon, New York, U.S.A.

Now
60 °F

Sunny.


Feels Like: 60 °F
Forecast: 51 / 67 °F
Wind: 9 mph from Northeast

Location: Republic Airport

Current Time: Sep 23, 2014 at 10:58:28 AM

Latest Report: Sep 23, 2014 at 9:53 AM


Visibility: 10 mi

Pressure: 30.32 "Hg

Humidity: 56%

Dew point: 44 °F

Location of BabylonLocation

Historic Weather in Babylon — Graph

°F

Babylon temperature yesterday

Maximum temperature yesterday: 72 °F (at 12:53 PM)
Minimum temperature yesterday: 56 °F (at 11:53 PM)
Average temperature yesterday: 66 °F

Past Weeks' High & Low Weather Summary

 TemperatureHumidityPressure
High80 °F (Sep 11, 3:53 PM)97% (Sep 21, 4:53 AM)30.39 "Hg (Sep 21, 4:53 AM)
Low50 °F (Sep 23, 6:53 AM)33% (Sep 17, 2:53 PM)29.61 "Hg (Sep 21, 6:53 PM)
Average65 °F70%30.09 "Hg
* Reported Sep 8 9:53 AM — Sep 23 9:53 AM, Babylon, Weather by CustomWeather, © 2014

Note: Actual official high and low records may vary slightly from our data, if they occured in-between our weather recording intervals... More about our weather records

Advertising

Babylon weather history for previous 24 hours

 ConditionsComfort  
Time TempWeatherWind HumidityBarometerVisibility
9:53 AM
Sep 23
60 °FSunny.9 mph56%30.32 "Hg10 mi
8:53 AM57 °FSunny.7 mph62%30.31 "Hg10 mi
7:53 AM52 °FSunny.No wind75%30.29 "Hg10 mi
6:53 AM50 °FClear.3 mph74%30.27 "Hg10 mi
5:53 AM51 °FClear.5 mph69%30.24 "Hg10 mi
4:53 AM51 °FClear.5 mph69%30.22 "Hg10 mi
3:53 AM51 °FClear.No wind66%30.21 "Hg10 mi
2:53 AM52 °FClear.No wind64%30.19 "Hg10 mi
1:53 AM52 °FClear.No wind64%30.19 "Hg10 mi
12:53 AM54 °FClear.3 mph57%30.17 "Hg10 mi
11:53 PM
Sep 22
56 °FClear.7 mph53%30.16 "Hg10 mi
10:53 PM57 °FClear.8 mph51%30.14 "Hg10 mi
9:53 PM58 °FClear.9 mph51%30.11 "Hg10 mi
8:53 PM59 °FClear.10 mph49%30.09 "Hg10 mi
7:53 PM61 °FClear.12 mph48%30.06 "Hg10 mi
6:53 PM64 °FSunny.13 mph47%30.01 "Hg10 mi
5:53 PM68 °FSunny.12 mph42%29.96 "Hg10 mi
4:53 PM70 °FSunny.13 mph42%29.93 "Hg10 mi
3:53 PM71 °FPassing clouds.10 mph44%29.91 "Hg10 mi
2:53 PM70 °FPassing clouds.13 mph47%29.90 "Hg10 mi
1:53 PM72 °FPartly sunny.16 mph44%29.89 "Hg10 mi
12:53 PM72 °FPassing clouds.14 mph44%29.88 "Hg10 mi
11:53 AM71 °FScattered clouds.15 mph47%29.87 "Hg10 mi
10:53 AM69 °FPassing clouds.16 mph53%29.85 "Hg10 mi
Weather by CustomWeather, © 2014

See weather overviewHow to use our weather pages